This demonstration page uses our WeatherBlox Daily Observations layout. Learn more.

Left ArrowRight Arrow

39.01783, -85.05884

Hourly Observations for August 17, 2022

Temp ( °F °C ) Dew Point ( °F °C ) Humidity (%) Winds ( mph kmh ) Pressure ( in mb ) Visibility ( mi km ) Precip ( " mm )
12:52 am 00:52 Mostly Clear 70 21.1 62 16.7 76 76 NE 12 19 30.00 1016 10 16 0.00 0.00
1:52 am 01:52 Mostly Clear 68 20 62 16.7 81 81 NNE 8 13 30.00 1016 10 16 0.00 0.00
2:52 am 02:52 Mostly Clear 66 18.9 62 16.7 87 87 NNE 5 7 29.99 1016 10 16 0.00 0.00
3:52 am 03:52 Clear 65 18.3 62 16.7 90 90 NNW 7 11 29.99 1016 10 16 0.00 0.00
4:52 am 04:52 Clear 63 17.2 56 13.3 78 78 NNW 6 9 29.99 1016 10 16 0.00 0.00
5:52 am 05:52 Clear 63 17.2 31 -0.6 30 30 N 6 9 29.99 1016 9 14 0.00 0.00
6:52 am 06:52 Clear 62 16.7 30 -1.1 30 30 N 6 9 30.01 1016 8 13 0.00 0.00
7:52 am 07:52 Sunny 63 17.2 30 -1.1 29 29 N 6 9 30.03 1017 8 13 0.00 0.00
8:52 am 08:52 Sunny 66 18.9 30 -1.1 26 26 NNE 7 11 30.04 1017 10 16 0.00 0.00
9:52 am 09:52 Mostly Cloudy 69 20.6 32 0 25 25 NE 5 7 30.04 1017 10 16 0.00 0.00
10:52 am 10:52 Mostly Sunny 73 22.8 32 0 22 22 ENE 5 7 30.04 1017 10 16 0.00 0.00
11:52 am 11:52 Mostly Cloudy 76 24.4 63 17.2 64 64 ENE 10 17 30.04 1017 10 16 0.00 0.00
12:52 pm 12:52 Mostly Cloudy 79 26.1 63 17.2 58 58 NE 12 19 30.03 1017 10 16 0.00 0.00
1:52 pm 13:52 Mostly Cloudy 78 25.6 61 16.1 56 56 NE 10 17 30.03 1017 10 16 0.00 0.00
2:52 pm 14:52 Mostly Cloudy 80 26.7 60 15.6 51 51 NE 9 15 30.02 1017 10 16 0.00 0.00
3:52 pm 15:52 Partly Cloudy 81 27.2 59 15 47 47 VRB 5 7 30.00 1016 10 16 0.00 0.00
4:52 pm 16:52 Mostly Sunny 81 27.2 58 14.4 45 45 NE 5 7 29.98 1015 10 16 0.00 0.00
5:52 pm 17:52 Partly Cloudy 82 27.8 59 15 46 46 NNE 7 11 29.98 1015 10 16 0.00 0.00
6:52 pm 18:52 Partly Cloudy 79 26.1 59 15 50 50 N 6 9 29.97 1015 10 16 0.00 0.00
7:52 pm 19:52 Mostly Sunny 77 25 61 16.1 58 58 NNW 8 13 29.98 1015 10 16 0.00 0.00
8:52 pm 20:52 Mostly Clear 74 23.3 61 16.1 64 64 NNW 8 13 29.98 1015 10 16 0.00 0.00
9:52 pm 21:52 Mostly Clear 72 22.2 62 16.7 71 71 NNW 9 15 30.00 1016 10 16 0.00 0.00
10:52 pm 22:52 Mostly Clear 73 22.8 60 15.6 64 64 NNE 7 11 30.01 1016 10 16 0.00 0.00
11:52 pm 23:52 Mostly Clear 72 22.2 60 15.6 66 66 NNE 7 11 30.01 1016 10 16 0.00 0.00

Powered by AerisWeather